This demonstration page uses our WeatherBlox Daily Observations layout. Learn more.

38.89511, -77.03637

Hourly Observations for March 23, 2015

Temp ( °F °C ) Dew Point ( °F °C ) Humidity (%) Winds ( mph kmh ) Pressure ( in mb ) Visibility ( mi km ) Precip ( " mm )
12:52 am 00:52 Mostly Cloudy 45 7 18 -8 34 34 N 10 17 30.18 1022 10 16.09344 0 0
1:52 am 01:52 Mostly Cloudy 45 7 16 -9 31 31 N 14 22 30.18 1022 10 16.09344 0 0
2:52 am 02:52 Mostly Cloudy 43 6 16 -9 34 34 NNE 10 17 30.18 1022 10 16.09344 0 0
3:52 am 03:52 Mostly Cloudy 43 6 14 -10 31 31 NNE 15 24 30.21 1023 10 16.09344 0 0
4:52 am 04:52 Mostly Cloudy 39 4 16 -9 39 39 NNE 12 19 30.21 1023 10 16.09344 0 0
5:52 am 05:52 Mostly Cloudy 37 3 12 -11 35 35 NNE 15 24 30.24 1024 10 16.09344 0 0
6:52 am 06:52 Mostly Cloudy 37 3 12 -11 35 35 N 14 22 30.24 1024 10 16.09344 0 0
7:52 am 07:52 Mostly Cloudy 36 2 12 -11 38 38 NNE 12 19 30.27 1025 10 16.09344 0 0
8:52 am 08:52 Mostly Cloudy 36 2 16 -9 44 44 NE 13 20 30.3 1026 10 16.09344 0 0
9:52 am 09:52 Mostly Cloudy 37 3 16 -9 41 41 ENE 6 9 30.3 1026 10 16.09344 0 0
10:52 am 10:52 Partly Cloudy 39 4 14 -10 36 36 NNE 6 9 30.3 1026 10 16.09344 0 0
11:52 am 11:52 Partly Cloudy 41 5 12 -11 31 31 E 5 7 30.3 1026 10 16.09344 0 0
12:52 pm 12:52 Mostly Sunny 45 7 18 -8 34 34 ENE 7 11 30.27 1025 10 16.09344 0 0
1:52 pm 13:52 Partly Cloudy 46 8 14 -10 27 27 ENE 5 7 30.24 1024 10 16.09344 0 0
2:52 pm 14:52 Mostly Cloudy 48 9 14 -10 25 25 NNE 7 11 30.21 1023 10 16.09344 0 0
3:52 pm 15:52 Partly Cloudy 48 9 16 -9 27 27 ENE 7 11 30.18 1022 10 16.09344 0 0
4:52 pm 16:52 Mostly Sunny 50 10 12 -11 22 22 ENE 5 7 30.18 1022 10 16.09344 0 0
5:52 pm 17:52 Mostly Sunny 50 10 18 -8 28 28 NE 5 7 30.18 1022 10 16.09344 0 0
6:52 pm 18:52 Partly Cloudy 48 9 16 -9 27 27 N 5 7 30.18 1022 10 16.09344 0 0
7:52 pm 19:52 Partly Cloudy 45 7 21 -6 39 39 ESE 12 19 30.21 1023 10 16.09344 0 0
8:52 pm 20:52 Mostly Cloudy 41 5 18 -8 39 39 ESE 6 9 30.24 1024 10 16.09344 0 0
9:52 pm 21:52 Cloudy 43 6 18 -8 36 36 ESE 3 6 30.24 1024 10 16.09344 0 0
10:52 pm 22:52 Cloudy 43 6 16 -9 34 34 ESE 3 6 30.24 1024 10 16.09344 0 0
11:52 pm 23:52 Cloudy 43 6 19 -7 39 39 ESE 6 9 30.27 1025 10 16.09344 0 0

Powered by AerisWeather